Location: Antist
(43.1184°N, 0.1270°E)
Time: 10:29:39
(UTC+00:00)

Cosmos 1939 Rocket - Pass Details

Date: 19 January 2020
Orbit: 534 x 583 km, 97.4° (Epoch: 19 February)

Event Time Altitude Azimuth Distance (km) Brightness Sun altitude
Rises 18:32:30 0° 161° (SSE) 2,675 6.3 -17.7°
Reaches altitude 10° 18:34:35 10° 160° (SSE) 1,793 5.3 -18.1°
Maximum altitude 18:38:27 72° 76° (ENE) 575 2.6 -18.8°
Drops below altitude 10° 18:42:23 10° 352° (N) 1,831 5.5 -19.5°
Sets 18:44:32 0° 350° (N) 2,737 6.4 -19.9°
